Time,TemperatureF,DewpointF,PressureIn,WindDirection,WindDirectionDegrees,WindSpeedMPH,WindSpeedGustMPH,Humidity,HourlyPrecipIn,Conditions,Clouds,dailyrainin,SoftwareType,DateUTC
2013-04-28 00:01:00,42.2,37.7,30.35,WSW,242,0.0,0.0,84,0.00,,,0.00,Wunderground v.1.15,2013-04-28 04:01:00,
2013-04-28 00:03:00,42.2,37.7,30.35,WNW,294,0.0,0.0,84,0.00,,,0.00,Wunderground v.1.15,2013-04-28 04:03:00,
2013-04-28 00:05:00,42.3,38.1,30.35,WSW,254,0.0,0.0,85,0.00,,,0.00,Wunderground v.1.15,2013-04-28 04:05:00,
2013-04-28 00:07:00,42.3,38.1,30.34,WSW,257,0.0,0.0,85,0.00,,,0.00,Wunderground v.1.15,2013-04-28 04:07:00,
2013-04-28 00:13:00,42.5,38.3,30.35,WSW,258,0.0,0.0,85,0.00,,,0.00,Wunderground v.1.15,2013-04-28 04:13:00,
2013-04-28 00:16:00,42.6,38.7,30.34,WSW,258,0.0,0.0,86,0.00,,,0.00,Wunderground v.1.15,2013-04-28 04:16:00,
2013-04-28 00:22:00,42.8,39.2,30.34,West,266,0.0,0.0,87,0.00,,,0.00,Wunderground v.1.15,2013-04-28 04:22:00,
2013-04-28 00:27:00,43.1,39.2,30.34,WSW,248,0.0,0.0,86,0.00,,,0.00,Wunderground v.1.15,2013-04-28 04:27:00,
2013-04-28 00:33:00,43.3,39.7,30.34,West,270,0.0,0.0,87,0.00,,,0.00,Wunderground v.1.15,2013-04-28 04:33:00,
2013-04-28 00:39:00,43.5,39.9,30.34,West,269,0.0,0.0,87,0.00,,,0.00,Wunderground v.1.15,2013-04-28 04:39:00,
2013-04-28 00:44:00,43.6,40.0,30.34,West,269,0.0,0.0,87,0.00,,,0.00,Wunderground v.1.15,2013-04-28 04:44:00,
2013-04-28 00:50:00,43.7,40.1,30.34,West,269,0.0,0.0,87,0.00,,,0.00,Wunderground v.1.15,2013-04-28 04:50:00,
2013-04-28 00:55:00,43.6,39.7,30.34,West,269,0.0,0.0,86,0.00,,,0.00,Wunderground v.1.15,2013-04-28 04:55:00,
2013-04-28 01:01:00,43.5,39.6,30.34,West,269,0.0,0.0,86,0.00,,,0.00,Wunderground v.1.15,2013-04-28 05:01:00,
2013-04-28 01:06:00,43.4,39.5,30.33,West,269,0.0,0.0,86,0.00,,,0.00,Wunderground v.1.15,2013-04-28 05:06:00,
2013-04-28 01:11:00,43.3,39.4,30.33,WSW,253,0.0,0.0,86,0.00,,,0.00,Wunderground v.1.15,2013-04-28 05:11:00,
2013-04-28 01:17:00,43.1,39.2,30.33,WSW,253,0.0,0.0,86,0.00,,,0.00,Wunderground v.1.15,2013-04-28 05:17:00,
2013-04-28 01:22:00,42.9,39.0,30.33,WSW,253,0.0,0.0,86,0.00,,,0.00,Wunderground v.1.15,2013-04-28 05:22:00,
2013-04-28 01:27:00,42.7,39.1,30.33,WSW,253,0.0,0.0,87,0.00,,,0.00,Wunderground v.1.15,2013-04-28 05:27:00,
2013-04-28 01:33:00,42.5,39.2,30.33,WSW,253,0.0,0.0,88,0.00,,,0.00,Wunderground v.1.15,2013-04-28 05:33:00,
2013-04-28 01:39:00,42.4,38.8,30.33,WSW,253,0.0,0.0,87,0.00,,,0.00,Wunderground v.1.15,2013-04-28 05:39:00,
2013-04-28 01:45:00,42.1,38.5,30.33,WSW,253,0.0,0.0,87,0.00,,,0.00,Wunderground v.1.15,2013-04-28 05:45:00,
2013-04-28 01:50:00,41.9,38.6,30.33,WSW,253,0.0,0.0,88,0.00,,,0.00,Wunderground v.1.15,2013-04-28 05:50:00,
2013-04-28 01:55:00,41.7,38.4,30.33,WSW,253,0.0,0.0,88,0.00,,,0.00,Wunderground v.1.15,2013-04-28 05:55:00,
2013-04-28 02:01:00,41.5,38.5,30.33,WSW,253,0.0,0.0,89,0.00,,,0.00,Wunderground v.1.15,2013-04-28 06:01:00,
2013-04-28 02:06:00,41.5,38.8,30.33,WSW,253,0.0,0.0,90,0.00,,,0.00,Wunderground v.1.15,2013-04-28 06:06:00,
2013-04-28 02:11:00,41.4,38.4,30.33,WSW,253,0.0,0.0,89,0.00,,,0.00,Wunderground v.1.15,2013-04-28 06:11:00,
2013-04-28 02:17:00,41.3,38.6,30.32,WSW,253,0.0,0.0,90,0.00,,,0.00,Wunderground v.1.15,2013-04-28 06:17:00,
2013-04-28 02:22:00,41.3,38.9,30.32,WSW,253,0.0,0.0,91,0.00,,,0.00,Wunderground v.1.15,2013-04-28 06:22:00,
2013-04-28 02:27:00,41.2,38.8,30.32,WSW,253,0.0,0.0,91,0.00,,,0.00,Wunderground v.1.15,2013-04-28 06:27:00,
2013-04-28 02:33:00,41.2,38.8,30.32,WSW,253,0.0,0.0,91,0.00,,,0.00,Wunderground v.1.15,2013-04-28 06:33:00,
2013-04-28 02:39:00,41.3,39.2,30.32,WSW,253,0.0,0.0,92,0.00,,,0.00,Wunderground v.1.15,2013-04-28 06:39:00,
2013-04-28 02:45:00,41.4,39.5,30.32,WSW,253,0.0,0.0,93,0.00,,,0.00,Wunderground v.1.15,2013-04-28 06:45:00,
2013-04-28 02:50:00,41.6,39.7,30.31,WSW,253,0.0,0.0,93,0.00,,,0.00,Wunderground v.1.15,2013-04-28 06:50:00,
2013-04-28 02:56:00,41.6,39.7,30.31,WSW,253,0.0,0.0,93,0.00,,,0.00,Wunderground v.1.15,2013-04-28 06:56:00,
2013-04-28 03:01:00,41.6,39.7,30.31,WSW,253,0.0,0.0,93,0.00,,,0.00,Wunderground v.1.15,2013-04-28 07:01:00,
2013-04-28 03:07:00,41.6,39.7,30.31,WSW,253,0.0,0.0,93,0.00,,,0.00,Wunderground v.1.15,2013-04-28 07:07:00,
2013-04-28 03:13:00,41.7,40.1,30.31,WSW,253,0.0,0.0,94,0.00,,,0.00,Wunderground v.1.15,2013-04-28 07:13:00,
2013-04-28 03:18:00,41.8,40.2,30.31,WSW,253,0.0,0.0,94,0.00,,,0.00,Wunderground v.1.15,2013-04-28 07:18:00,
2013-04-28 03:24:00,41.8,40.2,30.31,WSW,253,0.0,0.0,94,0.00,,,0.00,Wunderground v.1.15,2013-04-28 07:24:00,
2013-04-28 03:29:00,41.8,40.2,30.31,WSW,253,0.0,0.0,94,0.00,,,0.00,Wunderground v.1.15,2013-04-28 07:29:00,
2013-04-28 03:34:00,41.9,40.3,30.31,WSW,253,0.0,0.0,94,0.00,,,0.00,Wunderground v.1.15,2013-04-28 07:34:00,
2013-04-28 03:39:00,41.9,40.3,30.31,WSW,253,0.0,0.0,94,0.00,,,0.00,Wunderground v.1.15,2013-04-28 07:39:00,
2013-04-28 03:45:00,41.9,40.3,30.31,WSW,253,0.0,0.0,94,0.00,,,0.00,Wunderground v.1.15,2013-04-28 07:45:00,
2013-04-28 03:51:00,41.9,40.3,30.31,WSW,253,0.0,0.0,94,0.00,,,0.00,Wunderground v.1.15,2013-04-28 07:51:00,
2013-04-28 03:57:00,41.9,40.3,30.31,WSW,253,0.0,0.0,94,0.00,,,0.00,Wunderground v.1.15,2013-04-28 07:57:00,
2013-04-28 04:03:00,41.9,40.6,30.31,WSW,253,0.0,0.0,95,0.00,,,0.00,Wunderground v.1.15,2013-04-28 08:03:00,
2013-04-28 04:09:00,41.9,40.6,30.31,WSW,253,0.0,0.0,95,0.00,,,0.00,Wunderground v.1.15,2013-04-28 08:09:00,
2013-04-28 04:14:00,41.8,40.2,30.31,WSW,253,0.0,0.0,94,0.00,,,0.00,Wunderground v.1.15,2013-04-28 08:14:00,
2013-04-28 04:19:00,41.6,40.0,30.31,WSW,253,0.0,0.0,94,0.00,,,0.00,Wunderground v.1.15,2013-04-28 08:19:00,
2013-04-28 04:25:00,41.4,39.8,30.31,WSW,253,0.0,0.0,94,0.00,,,0.00,Wunderground v.1.15,2013-04-28 08:25:00,
2013-04-28 04:30:00,41.3,39.7,30.31,WSW,253,0.0,0.0,94,0.00,,,0.00,Wunderground v.1.15,2013-04-28 08:30:00,
2013-04-28 04:36:00,40.8,38.9,30.31,WSW,253,0.0,0.0,93,0.00,,,0.00,Wunderground v.1.15,2013-04-28 08:36:00,
2013-04-28 04:42:00,40.2,38.3,30.31,WSW,253,0.0,0.0,93,0.00,,,0.00,Wunderground v.1.15,2013-04-28 08:42:00,
2013-04-28 04:48:00,40.0,38.4,30.31,WSW,253,0.0,0.0,94,0.00,,,0.00,Wunderground v.1.15,2013-04-28 08:48:00,
2013-04-28 04:53:00,39.9,38.6,30.31,WSW,253,0.0,0.0,95,0.00,,,0.00,Wunderground v.1.15,2013-04-28 08:53:00,
2013-04-28 04:59:00,40.1,38.8,30.31,WSW,253,0.0,0.0,95,0.00,,,0.00,Wunderground v.1.15,2013-04-28 08:59:00,
2013-04-28 05:04:00,40.0,38.7,30.31,WSW,253,0.0,0.0,95,0.00,,,0.00,Wunderground v.1.15,2013-04-28 09:04:00,
2013-04-28 05:09:00,39.5,37.9,30.31,WSW,253,0.0,0.0,94,0.00,,,0.00,Wunderground v.1.15,2013-04-28 09:09:00,
2013-04-28 05:15:00,39.3,37.7,30.31,WSW,253,0.0,0.0,94,0.00,,,0.00,Wunderground v.1.15,2013-04-28 09:15:00,
2013-04-28 05:20:00,39.3,38.0,30.31,WSW,253,0.0,0.0,95,0.00,,,0.00,Wunderground v.1.15,2013-04-28 09:20:00,
2013-04-28 05:26:00,39.3,38.0,30.31,WSW,253,0.0,0.0,95,0.00,,,0.00,Wunderground v.1.15,2013-04-28 09:26:00,
2013-04-28 05:31:00,39.1,37.8,30.31,WSW,253,0.0,0.0,95,0.00,,,0.00,Wunderground v.1.15,2013-04-28 09:31:00,
2013-04-28 05:36:00,39.0,37.7,30.31,WSW,253,0.0,0.0,95,0.00,,,0.00,Wunderground v.1.15,2013-04-28 09:36:00,
2013-04-28 05:42:00,38.8,37.5,30.31,WSW,253,0.0,0.0,95,0.00,,,0.00,Wunderground v.1.15,2013-04-28 09:42:00,
2013-04-28 05:47:00,38.6,37.3,30.31,WSW,253,0.0,0.0,95,0.00,,,0.00,Wunderground v.1.15,2013-04-28 09:47:00,
2013-04-28 05:52:00,38.4,37.1,30.31,South,184,0.0,0.0,95,0.00,,,0.00,Wunderground v.1.15,2013-04-28 09:52:00,
2013-04-28 05:58:00,38.2,36.9,30.31,South,184,0.0,0.0,95,0.00,,,0.00,Wunderground v.1.15,2013-04-28 09:58:00,
2013-04-28 06:03:00,38.2,36.9,30.31,South,184,0.0,0.0,95,0.00,,,0.00,Wunderground v.1.15,2013-04-28 10:03:00,
2013-04-28 06:09:00,38.4,37.4,30.31,South,184,0.0,0.0,96,0.00,,,0.00,Wunderground v.1.15,2013-04-28 10:09:00,
2013-04-28 06:15:00,38.7,37.9,30.31,SSE,160,0.0,0.0,97,0.00,,,0.00,Wunderground v.1.15,2013-04-28 10:15:00,
2013-04-28 06:20:00,39.1,38.3,30.32,SSE,156,0.0,0.0,97,0.00,,,0.00,Wunderground v.1.15,2013-04-28 10:20:00,
2013-04-28 06:26:00,39.3,38.5,30.32,SSE,155,0.0,0.0,97,0.00,,,0.00,Wunderground v.1.15,2013-04-28 10:26:00,
2013-04-28 06:31:00,39.6,38.8,30.32,SSE,155,0.0,0.0,97,0.00,,,0.00,Wunderground v.1.15,2013-04-28 10:31:00,
2013-04-28 06:36:00,40.0,39.2,30.32,SSE,155,0.0,0.0,97,0.00,,,0.00,Wunderground v.1.15,2013-04-28 10:36:00,
2013-04-28 06:42:00,40.4,39.6,30.32,SSE,155,0.0,0.0,97,0.00,,,0.00,Wunderground v.1.15,2013-04-28 10:42:00,
2013-04-28 06:47:00,40.9,40.4,30.32,SSE,155,0.0,0.0,98,0.00,,,0.00,Wunderground v.1.15,2013-04-28 10:47:00,
2013-04-28 06:53:00,41.6,41.1,30.32,SE,143,0.0,0.0,98,0.00,,,0.00,Wunderground v.1.15,2013-04-28 10:53:00,
2013-04-28 06:58:00,42.4,41.9,30.32,ESE,113,0.0,0.0,98,0.00,,,0.00,Wunderground v.1.15,2013-04-28 10:58:00,
2013-04-28 07:03:00,43.0,42.5,30.32,ESE,113,0.0,0.0,98,0.00,,,0.00,Wunderground v.1.15,2013-04-28 11:03:00,
2013-04-28 07:09:00,43.6,43.1,30.33,East,94,0.0,0.0,98,0.00,,,0.00,Wunderground v.1.15,2013-04-28 11:09:00,
2013-04-28 07:14:00,44.3,43.8,30.33,East,101,0.0,0.0,98,0.00,,,0.00,Wunderground v.1.15,2013-04-28 11:14:00,
2013-04-28 07:19:00,44.9,44.4,30.32,East,98,0.0,1.0,98,0.00,,,0.00,Wunderground v.1.15,2013-04-28 11:19:00,
2013-04-28 07:25:00,45.7,45.2,30.32,East,85,0.0,0.0,98,0.00,,,0.00,Wunderground v.1.15,2013-04-28 11:25:00,
2013-04-28 07:31:00,46.4,45.6,30.33,ENE,74,0.0,3.0,97,0.00,,,0.00,Wunderground v.1.15,2013-04-28 11:31:00,
2013-04-28 07:37:00,47.1,45.7,30.33,East,80,1.0,3.0,95,0.00,,,0.00,Wunderground v.1.15,2013-04-28 11:37:00,
2013-04-28 07:42:00,47.7,46.1,30.33,East,90,2.0,2.0,94,0.00,,,0.00,Wunderground v.1.15,2013-04-28 11:42:00,
2013-04-28 07:48:00,48.5,46.3,30.33,East,99,2.0,2.0,92,0.00,,,0.00,Wunderground v.1.15,2013-04-28 11:48:00,
2013-04-28 07:53:00,49.4,46.6,30.33,ESE,119,2.0,2.0,90,0.00,,,0.00,Wunderground v.1.15,2013-04-28 11:53:00,
2013-04-28 07:58:00,50.4,47.0,30.33,ESE,116,2.0,2.0,88,0.00,,,0.00,Wunderground v.1.15,2013-04-28 11:58:00,
2013-04-28 08:03:00,51.4,47.0,30.34,East,84,1.0,2.0,85,0.00,,,0.00,Wunderground v.1.15,2013-04-28 12:03:00,
2013-04-28 08:09:00,52.6,47.3,30.34,SE,138,1.0,2.0,82,0.00,,,0.00,Wunderground v.1.15,2013-04-28 12:09:00,
2013-04-28 08:15:00,53.5,47.5,30.34,SE,124,1.0,3.0,80,0.00,,,0.00,Wunderground v.1.15,2013-04-28 12:15:00,
2013-04-28 08:20:00,54.2,47.5,30.34,SE,138,1.0,2.0,78,0.00,,,0.00,Wunderground v.1.15,2013-04-28 12:20:00,
2013-04-28 08:25:00,54.9,47.5,30.34,East,96,1.0,3.0,76,0.00,,,0.00,Wunderground v.1.15,2013-04-28 12:25:00,
2013-04-28 08:31:00,55.7,47.2,30.34,ESE,104,1.0,2.0,73,0.00,,,0.00,Wunderground v.1.15,2013-04-28 12:31:00,
2013-04-28 08:36:00,56.4,47.9,30.34,ESE,121,1.0,2.0,73,0.00,,,0.00,Wunderground v.1.15,2013-04-28 12:36:00,
2013-04-28 08:42:00,57.2,47.9,30.34,ESE,116,1.0,2.0,71,0.00,,,0.00,Wunderground v.1.15,2013-04-28 12:42:00,
2013-04-28 08:47:00,58.1,48.0,30.34,East,98,1.0,2.0,69,0.00,,,0.00,Wunderground v.1.15,2013-04-28 12:47:00,
2013-04-28 08:52:00,59.0,48.1,30.34,East,81,1.0,4.0,67,0.00,,,0.00,Wunderground v.1.15,2013-04-28 12:52:00,
2013-04-28 08:58:00,59.8,48.4,30.35,East,92,0.0,4.0,66,0.00,,,0.00,Wunderground v.1.15,2013-04-28 12:58:00,
2013-04-28 09:03:00,60.2,46.7,30.35,SSW,201,0.0,1.0,61,0.00,,,0.00,Wunderground v.1.15,2013-04-28 13:03:00,
2013-04-28 09:09:00,60.0,47.8,30.35,WSW,254,0.0,1.0,64,0.00,,,0.00,Wunderground v.1.15,2013-04-28 13:09:00,
2013-04-28 09:15:00,60.4,47.3,30.35,WSW,252,0.0,0.0,62,0.00,,,0.00,Wunderground v.1.15,2013-04-28 13:15:00,
2013-04-28 09:20:00,60.5,47.8,30.36,West,269,0.0,3.0,63,0.00,,,0.00,Wunderground v.1.15,2013-04-28 13:20:00,
2013-04-28 09:25:00,60.6,47.5,30.36,WSW,242,1.0,3.0,62,0.00,,,0.00,Wunderground v.1.15,2013-04-28 13:25:00,
2013-04-28 09:31:00,60.4,47.7,30.36,WSW,256,2.0,3.0,63,0.00,,,0.00,Wunderground v.1.15,2013-04-28 13:31:00,
2013-04-28 09:37:00,60.3,48.1,30.36,West,273,2.0,3.0,64,0.00,,,0.00,Wunderground v.1.15,2013-04-28 13:37:00,
2013-04-28 09:42:00,60.7,48.4,30.36,West,271,2.0,4.0,64,0.00,,,0.00,Wunderground v.1.15,2013-04-28 13:42:00,
2013-04-28 09:48:00,61.0,48.7,30.36,SW,221,1.0,4.0,64,0.00,,,0.00,Wunderground v.1.15,2013-04-28 13:48:00,
2013-04-28 09:53:00,60.9,47.8,30.36,WSW,243,1.0,5.0,62,0.00,,,0.00,Wunderground v.1.15,2013-04-28 13:53:00,
2013-04-28 09:59:00,60.4,46.9,30.36,WSW,256,2.0,5.0,61,0.00,,,0.00,Wunderground v.1.15,2013-04-28 13:59:00,
2013-04-28 10:04:00,60.5,46.5,30.36,SW,229,2.0,5.0,60,0.00,,,0.00,Wunderground v.1.15,2013-04-28 14:04:00,
2013-04-28 10:09:00,60.8,46.4,30.35,West,274,2.0,5.0,59,0.00,,,0.00,Wunderground v.1.15,2013-04-28 14:09:00,
2013-04-28 10:15:00,61.0,43.2,30.35,SW,228,2.0,3.0,52,0.00,,,0.00,Wunderground v.1.15,2013-04-28 14:15:00,
2013-04-28 10:20:00,61.1,41.8,30.36,West,280,3.0,3.0,49,0.00,,,0.00,Wunderground v.1.15,2013-04-28 14:20:00,
2013-04-28 10:26:00,61.0,45.2,30.35,West,263,3.0,6.0,56,0.00,,,0.00,Wunderground v.1.15,2013-04-28 14:26:00,
2013-04-28 10:31:00,60.9,47.4,30.35,WSW,252,3.0,3.0,61,0.00,,,0.00,Wunderground v.1.15,2013-04-28 14:31:00,
2013-04-28 10:36:00,61.0,47.9,30.36,West,267,3.0,4.0,62,0.00,,,0.00,Wunderground v.1.15,2013-04-28 14:36:00,
2013-04-28 10:42:00,60.8,48.5,30.36,WSW,254,3.0,5.0,64,0.00,,,0.00,Wunderground v.1.15,2013-04-28 14:42:00,
2013-04-28 10:47:00,60.2,48.0,30.36,WNW,287,4.0,6.0,64,0.00,,,0.00,Wunderground v.1.15,2013-04-28 14:47:00,
2013-04-28 10:53:00,60.0,48.2,30.35,West,266,4.0,7.0,65,0.00,,,0.00,Wunderground v.1.15,2013-04-28 14:53:00,
2013-04-28 10:58:00,60.3,48.5,30.35,WSW,257,3.0,7.0,65,0.00,,,0.00,Wunderground v.1.15,2013-04-28 14:58:00,
2013-04-28 11:03:00,60.2,48.8,30.35,West,277,3.0,5.0,66,0.00,,,0.00,Wunderground v.1.15,2013-04-28 15:03:00,
2013-04-28 11:09:00,60.4,49.0,30.35,West,260,3.0,6.0,66,0.00,,,0.00,Wunderground v.1.15,2013-04-28 15:09:00,
2013-04-28 11:14:00,60.8,49.4,30.35,WSW,244,3.0,5.0,66,0.00,,,0.00,Wunderground v.1.15,2013-04-28 15:14:00,
2013-04-28 11:20:00,60.9,49.1,30.35,West,265,4.0,4.0,65,0.00,,,0.00,Wunderground v.1.15,2013-04-28 15:20:00,
2013-04-28 11:25:00,60.9,49.1,30.35,SW,236,4.0,7.0,65,0.00,,,0.00,Wunderground v.1.15,2013-04-28 15:25:00,
2013-04-28 11:31:00,61.0,48.7,30.35,West,276,3.0,7.0,64,0.00,,,0.00,Wunderground v.1.15,2013-04-28 15:31:00,
2013-04-28 11:36:00,61.1,48.4,30.35,West,273,3.0,7.0,63,0.00,,,0.00,Wunderground v.1.15,2013-04-28 15:36:00,
2013-04-28 11:41:00,61.2,48.9,30.35,West,267,3.0,3.0,64,0.00,,,0.00,Wunderground v.1.15,2013-04-28 15:41:00,
2013-04-28 11:47:00,62.1,48.9,30.34,SSW,194,2.0,3.0,62,0.00,,,0.00,Wunderground v.1.15,2013-04-28 15:47:00,
2013-04-28 11:52:00,62.9,47.9,30.33,SSE,159,1.0,2.0,58,0.00,,,0.00,Wunderground v.1.15,2013-04-28 15:52:00,
2013-04-28 11:58:00,63.9,48.4,30.33,SW,226,2.0,3.0,57,0.00,,,0.00,Wunderground v.1.15,2013-04-28 15:58:00,
2013-04-28 12:03:00,64.8,48.7,30.33,SSW,211,1.0,3.0,56,0.00,,,0.00,Wunderground v.1.15,2013-04-28 16:03:00,
2013-04-28 12:09:00,65.4,45.2,30.33,NE,53,2.0,5.0,48,0.00,,,0.00,Wunderground v.1.15,2013-04-28 16:09:00,
2013-04-28 12:15:00,65.8,47.2,30.33,West,279,2.0,3.0,51,0.00,,,0.00,Wunderground v.1.15,2013-04-28 16:15:00,
2013-04-28 12:20:00,65.9,46.7,30.33,WSW,240,2.0,4.0,50,0.00,,,0.00,Wunderground v.1.15,2013-04-28 16:20:00,
2013-04-28 12:26:00,65.3,48.2,30.33,WSW,240,3.0,6.0,54,0.00,,,0.00,Wunderground v.1.15,2013-04-28 16:26:00,
2013-04-28 12:31:00,65.0,48.4,30.33,SE,132,3.0,3.0,55,0.00,,,0.00,Wunderground v.1.15,2013-04-28 16:31:00,
2013-04-28 12:36:00,65.5,47.9,30.33,SW,227,2.0,4.0,53,0.00,,,0.00,Wunderground v.1.15,2013-04-28 16:36:00,
2013-04-28 12:41:00,65.3,47.7,30.33,SSE,167,2.0,5.0,53,0.00,,,0.00,Wunderground v.1.15,2013-04-28 16:41:00,
2013-04-28 12:47:00,65.1,47.0,30.33,SW,227,2.0,5.0,52,0.00,,,0.00,Wunderground v.1.15,2013-04-28 16:47:00,
2013-04-28 12:52:00,65.2,45.0,30.32,SE,143,2.0,4.0,48,0.00,,,0.00,Wunderground v.1.15,2013-04-28 16:52:00,
2013-04-28 12:58:00,65.3,43.4,30.32,South,177,2.0,4.0,45,0.00,,,0.00,Wunderground v.1.15,2013-04-28 16:58:00,
2013-04-28 13:03:00,65.8,39.5,30.32,ESE,117,1.0,3.0,38,0.00,,,0.00,Wunderground v.1.15,2013-04-28 17:03:00,
2013-04-28 13:09:00,66.3,44.9,30.32,SW,227,2.0,4.0,46,0.00,,,0.00,Wunderground v.1.15,2013-04-28 17:09:00,
2013-04-28 13:15:00,65.3,46.7,30.32,West,274,3.0,5.0,51,0.00,,,0.00,Wunderground v.1.15,2013-04-28 17:15:00,
2013-04-28 13:20:00,64.8,45.7,30.32,WSW,256,4.0,4.0,50,0.00,,,0.00,Wunderground v.1.15,2013-04-28 17:20:00,
2013-04-28 13:26:00,64.7,46.7,30.32,SW,228,3.0,4.0,52,0.00,,,0.00,Wunderground v.1.15,2013-04-28 17:26:00,
2013-04-28 13:31:00,65.2,47.1,30.32,West,262,2.0,2.0,52,0.00,,,0.00,Wunderground v.1.15,2013-04-28 17:31:00,
2013-04-28 13:36:00,65.3,46.2,30.32,SSW,210,1.0,6.0,50,0.00,,,0.00,Wunderground v.1.15,2013-04-28 17:36:00,
2013-04-28 13:41:00,65.6,45.4,30.32,SW,225,1.0,4.0,48,0.00,,,0.00,Wunderground v.1.15,2013-04-28 17:41:00,
2013-04-28 13:47:00,65.9,45.1,30.32,West,281,2.0,4.0,47,0.00,,,0.00,Wunderground v.1.15,2013-04-28 17:47:00,
2013-04-28 13:53:00,65.2,46.1,30.32,SSE,164,2.0,5.0,50,0.00,,,0.00,Wunderground v.1.15,2013-04-28 17:53:00,
2013-04-28 13:59:00,64.9,43.6,30.32,WSW,238,2.0,5.0,46,0.00,,,0.00,Wunderground v.1.15,2013-04-28 17:59:00,
2013-04-28 14:04:00,65.2,42.7,30.32,South,180,2.0,3.0,44,0.00,,,0.00,Wunderground v.1.15,2013-04-28 18:04:00,
2013-04-28 14:10:00,66.2,45.4,30.31,SW,232,2.0,3.0,47,0.00,,,0.00,Wunderground v.1.15,2013-04-28 18:10:00,
2013-04-28 14:15:00,66.3,46.0,30.31,South,178,2.0,7.0,48,0.00,,,0.00,Wunderground v.1.15,2013-04-28 18:15:00,
2013-04-28 14:20:00,66.0,41.0,30.31,SSE,162,3.0,3.0,40,0.00,,,0.00,Wunderground v.1.15,2013-04-28 18:20:00,
2013-04-28 14:26:00,65.9,39.6,30.31,SE,142,2.0,4.0,38,0.00,,,0.00,Wunderground v.1.15,2013-04-28 18:26:00,
2013-04-28 14:31:00,65.8,40.8,30.31,SE,135,2.0,4.0,40,0.00,,,0.00,Wunderground v.1.15,2013-04-28 18:31:00,
2013-04-28 14:37:00,65.6,39.3,30.31,SSE,163,3.0,5.0,38,0.00,,,0.00,Wunderground v.1.15,2013-04-28 18:37:00,
2013-04-28 14:43:00,65.0,39.4,30.30,South,190,3.0,6.0,39,0.00,,,0.00,Wunderground v.1.15,2013-04-28 18:43:00,
2013-04-28 14:48:00,65.2,39.6,30.30,South,176,3.0,6.0,39,0.00,,,0.00,Wunderground v.1.15,2013-04-28 18:48:00,
2013-04-28 14:54:00,65.0,39.4,30.31,ESE,119,3.0,7.0,39,0.00,,,0.00,Wunderground v.1.15,2013-04-28 18:54:00,
2013-04-28 14:59:00,65.0,38.8,30.31,South,179,3.0,7.0,38,0.00,,,0.00,Wunderground v.1.15,2013-04-28 18:59:00,
2013-04-28 15:04:00,64.9,42.5,30.30,West,272,3.0,6.0,44,0.00,,,0.00,Wunderground v.1.15,2013-04-28 19:04:00,
2013-04-28 15:10:00,64.7,45.1,30.30,WSW,239,3.0,4.0,49,0.00,,,0.00,Wunderground v.1.15,2013-04-28 19:10:00,
2013-04-28 15:15:00,64.8,44.6,30.30,West,261,3.0,5.0,48,0.00,,,0.00,Wunderground v.1.15,2013-04-28 19:15:00,
2013-04-28 15:21:00,64.6,46.1,30.30,WSW,254,3.0,3.0,51,0.00,,,0.00,Wunderground v.1.15,2013-04-28 19:21:00,
2013-04-28 15:26:00,64.6,45.0,30.30,West,273,3.0,3.0,49,0.00,,,0.00,Wunderground v.1.15,2013-04-28 19:26:00,
2013-04-28 15:32:00,64.9,46.3,30.29,West,279,3.0,5.0,51,0.00,,,0.00,Wunderground v.1.15,2013-04-28 19:32:00,
2013-04-28 15:37:00,65.1,46.0,30.29,West,268,3.0,5.0,50,0.00,,,0.00,Wunderground v.1.15,2013-04-28 19:37:00,
2013-04-28 15:42:00,65.2,45.0,30.29,WSW,244,3.0,7.0,48,0.00,,,0.00,Wunderground v.1.15,2013-04-28 19:42:00,
2013-04-28 15:48:00,65.4,44.1,30.28,WSW,237,2.0,7.0,46,0.00,,,0.00,Wunderground v.1.15,2013-04-28 19:48:00,
2013-04-28 15:53:00,65.7,42.0,30.28,SW,218,2.0,2.0,42,0.00,,,0.00,Wunderground v.1.15,2013-04-28 19:53:00,
2013-04-28 15:59:00,65.2,41.5,30.28,SW,217,2.0,7.0,42,0.00,,,0.00,Wunderground v.1.15,2013-04-28 19:59:00,
2013-04-28 16:04:00,64.9,41.2,30.28,West,265,3.0,5.0,42,0.00,,,0.00,Wunderground v.1.15,2013-04-28 20:04:00,
2013-04-28 16:09:00,64.6,42.2,30.28,SSW,213,3.0,5.0,44,0.00,,,0.00,Wunderground v.1.15,2013-04-28 20:09:00,
2013-04-28 16:14:00,64.7,42.3,30.28,South,180,2.0,3.0,44,0.00,,,0.00,Wunderground v.1.15,2013-04-28 20:14:00,
2013-04-28 16:20:00,65.2,40.3,30.27,South,179,1.0,5.0,40,0.00,,,0.00,Wunderground v.1.15,2013-04-28 20:20:00,
2013-04-28 16:25:00,64.7,39.2,30.27,East,98,3.0,8.0,39,0.00,,,0.00,Wunderground v.1.15,2013-04-28 20:25:00,
2013-04-28 16:31:00,64.6,39.7,30.28,SSW,201,3.0,3.0,40,0.00,,,0.00,Wunderground v.1.15,2013-04-28 20:31:00,
2013-04-28 16:36:00,64.5,40.9,30.28,NNW,327,2.0,5.0,42,0.00,,,0.00,Wunderground v.1.15,2013-04-28 20:36:00,
2013-04-28 16:41:00,64.6,40.4,30.28,SE,138,2.0,6.0,41,0.00,,,0.00,Wunderground v.1.15,2013-04-28 20:41:00,
2013-04-28 16:47:00,64.1,39.9,30.28,ESE,113,3.0,7.0,41,0.00,,,0.00,Wunderground v.1.15,2013-04-28 20:47:00,
2013-04-28 16:52:00,63.6,40.1,30.28,ESE,116,3.0,7.0,42,0.00,,,0.00,Wunderground v.1.15,2013-04-28 20:52:00,
2013-04-28 16:58:00,63.5,40.6,30.27,SSE,150,2.0,7.0,43,0.00,,,0.00,Wunderground v.1.15,2013-04-28 20:58:00,
2013-04-28 17:03:00,63.4,39.3,30.28,South,169,2.0,4.0,41,0.00,,,0.00,Wunderground v.1.15,2013-04-28 21:03:00,
2013-04-28 17:09:00,63.3,40.4,30.28,ESE,120,3.0,5.0,43,0.00,,,0.00,Wunderground v.1.15,2013-04-28 21:09:00,
2013-04-28 17:15:00,63.4,41.7,30.28,SW,215,2.0,4.0,45,0.00,,,0.00,Wunderground v.1.15,2013-04-28 21:15:00,
2013-04-28 17:20:00,63.3,42.2,30.28,SW,223,2.0,6.0,46,0.00,,,0.00,Wunderground v.1.15,2013-04-28 21:20:00,
2013-04-28 17:26:00,63.0,42.4,30.28,WNW,296,3.0,6.0,47,0.00,,,0.00,Wunderground v.1.15,2013-04-28 21:26:00,
2013-04-28 17:31:00,62.5,41.4,30.28,SW,230,3.0,5.0,46,0.00,,,0.00,Wunderground v.1.15,2013-04-28 21:31:00,
2013-04-28 17:37:00,61.7,42.3,30.28,SW,223,4.0,5.0,49,0.00,,,0.00,Wunderground v.1.15,2013-04-28 21:37:00,
2013-04-28 17:42:00,61.4,42.6,30.28,SSW,205,3.0,5.0,50,0.00,,,0.00,Wunderground v.1.15,2013-04-28 21:42:00,
2013-04-28 17:48:00,61.1,42.8,30.28,SW,215,3.0,5.0,51,0.00,,,0.00,Wunderground v.1.15,2013-04-28 21:48:00,
2013-04-28 17:53:00,60.8,43.1,30.28,West,273,3.0,9.0,52,0.00,,,0.00,Wunderground v.1.15,2013-04-28 21:53:00,
2013-04-28 17:59:00,60.5,42.8,30.29,SSE,161,3.0,9.0,52,0.00,,,0.00,Wunderground v.1.15,2013-04-28 21:59:00,
2013-04-28 18:05:00,60.0,43.8,30.29,WSW,248,4.0,4.0,55,0.00,,,0.00,Wunderground v.1.15,2013-04-28 22:05:00,
2013-04-28 18:10:00,59.6,43.4,30.29,SW,229,3.0,6.0,55,0.00,,,0.00,Wunderground v.1.15,2013-04-28 22:10:00,
2013-04-28 18:16:00,59.3,44.1,30.29,WSW,250,3.0,6.0,57,0.00,,,0.00,Wunderground v.1.15,2013-04-28 22:16:00,
2013-04-28 18:21:00,59.0,45.1,30.29,SSW,213,2.0,2.0,60,0.00,,,0.00,Wunderground v.1.15,2013-04-28 22:21:00,
2013-04-28 18:27:00,59.0,47.2,30.29,WSW,250,1.0,4.0,65,0.00,,,0.00,Wunderground v.1.15,2013-04-28 22:27:00,
2013-04-28 18:32:00,58.3,47.8,30.29,SW,236,2.0,4.0,68,0.00,,,0.00,Wunderground v.1.15,2013-04-28 22:32:00,
2013-04-28 18:37:00,57.7,48.4,30.29,NW,304,2.0,4.0,71,0.00,,,0.00,Wunderground v.1.15,2013-04-28 22:37:00,
2013-04-28 18:43:00,56.7,47.8,30.29,West,280,2.0,2.0,72,0.00,,,0.00,Wunderground v.1.15,2013-04-28 22:43:00,
2013-04-28 18:48:00,56.0,47.1,30.29,WSW,244,2.0,3.0,72,0.00,,,0.00,Wunderground v.1.15,2013-04-28 22:48:00,
2013-04-28 18:54:00,55.3,46.1,30.29,South,171,2.0,4.0,71,0.00,,,0.00,Wunderground v.1.15,2013-04-28 22:54:00,
2013-04-28 18:59:00,54.8,45.9,30.29,South,172,2.0,4.0,72,0.00,,,0.00,Wunderground v.1.15,2013-04-28 22:59:00,
2013-04-28 19:04:00,54.3,45.8,30.29,South,184,2.0,2.0,73,0.00,,,0.00,Wunderground v.1.15,2013-04-28 23:04:00,
2013-04-28 19:09:00,54.0,45.9,30.29,South,190,1.0,2.0,74,0.00,,,0.00,Wunderground v.1.15,2013-04-28 23:09:00,
2013-04-28 19:15:00,53.7,46.3,30.29,SW,215,1.0,3.0,76,0.00,,,0.00,Wunderground v.1.15,2013-04-28 23:15:00,
2013-04-28 19:21:00,53.3,45.9,30.28,SE,130,1.0,1.0,76,0.00,,,0.00,Wunderground v.1.15,2013-04-28 23:21:00,
2013-04-28 19:27:00,53.0,45.6,30.28,South,177,0.0,1.0,76,0.00,,,0.00,Wunderground v.1.15,2013-04-28 23:27:00,
2013-04-28 19:33:00,52.7,45.7,30.28,WSW,252,0.0,2.0,77,0.00,,,0.00,Wunderground v.1.15,2013-04-28 23:33:00,
2013-04-28 19:39:00,52.4,45.7,30.28,WSW,242,0.0,2.0,78,0.00,,,0.00,Wunderground v.1.15,2013-04-28 23:39:00,
2013-04-28 19:44:00,52.2,45.5,30.28,WSW,242,0.0,0.0,78,0.00,,,0.00,Wunderground v.1.15,2013-04-28 23:44:00,
2013-04-28 19:49:00,52.0,45.4,30.28,WSW,241,0.0,0.0,78,0.00,,,0.00,Wunderground v.1.15,2013-04-28 23:49:00,
2013-04-28 19:55:00,51.8,45.5,30.28,SW,227,0.0,0.0,79,0.00,,,0.00,Wunderground v.1.15,2013-04-28 23:55:00,
2013-04-28 20:01:00,51.5,45.2,30.29,SW,225,0.0,1.0,79,0.00,,,0.00,Wunderground v.1.15,2013-04-29 00:01:00,
2013-04-28 20:07:00,51.2,44.9,30.29,SW,225,0.0,1.0,79,0.00,,,0.00,Wunderground v.1.15,2013-04-29 00:07:00,
2013-04-28 20:13:00,51.0,44.7,30.29,SW,225,0.0,0.0,79,0.00,,,0.00,Wunderground v.1.15,2013-04-29 00:13:00,
2013-04-28 20:18:00,50.8,44.5,30.28,SW,225,0.0,0.0,79,0.00,,,0.00,Wunderground v.1.15,2013-04-29 00:18:00,
2013-04-28 20:24:00,50.5,44.2,30.28,SW,225,0.0,0.0,79,0.00,,,0.00,Wunderground v.1.15,2013-04-29 00:24:00,
2013-04-28 20:29:00,50.3,44.4,30.28,SSE,150,0.0,1.0,80,0.00,,,0.00,Wunderground v.1.15,2013-04-29 00:29:00,
2013-04-28 20:34:00,50.1,44.5,30.28,SSE,157,0.0,2.0,81,0.00,,,0.00,Wunderground v.1.15,2013-04-29 00:34:00,
2013-04-28 20:40:00,49.9,44.6,30.28,SSE,157,0.0,0.0,82,0.00,,,0.00,Wunderground v.1.15,2013-04-29 00:40:00,
2013-04-28 20:45:00,49.8,44.8,30.28,SSE,155,0.0,0.0,83,0.00,,,0.00,Wunderground v.1.15,2013-04-29 00:45:00,
2013-04-28 20:51:00,49.6,45.0,30.27,SE,140,0.0,0.0,84,0.00,,,0.00,Wunderground v.1.15,2013-04-29 00:51:00,
2013-04-28 20:56:00,49.5,44.9,30.27,SE,130,0.0,1.0,84,0.00,,,0.00,Wunderground v.1.15,2013-04-29 00:56:00,
2013-04-28 21:02:00,49.4,45.4,30.27,SE,130,0.0,1.0,86,0.00,,,0.00,Wunderground v.1.15,2013-04-29 01:02:00,
2013-04-28 21:07:00,49.3,45.3,30.28,South,176,0.0,1.0,86,0.00,,,0.00,Wunderground v.1.15,2013-04-29 01:07:00,
2013-04-28 21:12:00,49.2,45.2,30.28,South,186,0.0,1.0,86,0.00,,,0.00,Wunderground v.1.15,2013-04-29 01:12:00,
2013-04-28 21:18:00,49.2,45.5,30.28,South,177,0.0,1.0,87,0.00,,,0.00,Wunderground v.1.15,2013-04-29 01:18:00,
2013-04-28 21:23:00,49.1,45.4,30.28,SSE,159,0.0,1.0,87,0.00,,,0.00,Wunderground v.1.15,2013-04-29 01:23:00,
2013-04-28 21:29:00,49.0,45.3,30.28,SSE,159,0.0,1.0,87,0.00,,,0.00,Wunderground v.1.15,2013-04-29 01:29:00,
2013-04-28 21:34:00,48.9,45.2,30.28,SSE,159,0.0,0.0,87,0.00,,,0.00,Wunderground v.1.15,2013-04-29 01:34:00,
2013-04-28 21:39:00,48.8,45.1,30.28,SSE,148,0.0,0.0,87,0.00,,,0.00,Wunderground v.1.15,2013-04-29 01:39:00,
2013-04-28 21:45:00,48.7,45.0,30.28,SSE,148,0.0,0.0,87,0.00,,,0.00,Wunderground v.1.15,2013-04-29 01:45:00,
2013-04-28 21:50:00,48.6,44.9,30.28,SSE,148,0.0,0.0,87,0.00,,,0.00,Wunderground v.1.15,2013-04-29 01:50:00,
2013-04-28 21:56:00,48.5,44.8,30.28,SSE,148,0.0,0.0,87,0.00,,,0.00,Wunderground v.1.15,2013-04-29 01:56:00,
2013-04-28 22:01:00,48.3,44.6,30.28,SSE,148,0.0,0.0,87,0.00,,,0.00,Wunderground v.1.15,2013-04-29 02:01:00,
2013-04-28 22:06:00,48.1,44.4,30.28,SSE,148,0.0,0.0,87,0.00,,,0.00,Wunderground v.1.15,2013-04-29 02:06:00,
2013-04-28 22:12:00,47.8,44.1,30.28,SSE,148,0.0,0.0,87,0.00,,,0.00,Wunderground v.1.15,2013-04-29 02:12:00,
2013-04-28 22:17:00,47.6,43.9,30.28,SSE,148,0.0,0.0,87,0.00,,,0.00,Wunderground v.1.15,2013-04-29 02:17:00,
2013-04-28 22:23:00,47.2,43.8,30.28,SSE,148,0.0,0.0,88,0.00,,,0.00,Wunderground v.1.15,2013-04-29 02:23:00,
2013-04-28 22:28:00,47.0,43.6,30.28,SSE,148,0.0,0.0,88,0.00,,,0.00,Wunderground v.1.15,2013-04-29 02:28:00,
2013-04-28 22:33:00,46.7,43.3,30.28,SSE,148,0.0,0.0,88,0.00,,,0.00,Wunderground v.1.15,2013-04-29 02:33:00,
2013-04-28 22:39:00,46.4,43.0,30.28,SSE,148,0.0,0.0,88,0.00,,,0.00,Wunderground v.1.15,2013-04-29 02:39:00,
2013-04-28 22:44:00,46.2,43.1,30.28,SSE,148,0.0,0.0,89,0.00,,,0.00,Wunderground v.1.15,2013-04-29 02:44:00,
2013-04-28 22:50:00,45.9,42.8,30.28,SSE,148,0.0,0.0,89,0.00,,,0.00,Wunderground v.1.15,2013-04-29 02:50:00,
2013-04-28 22:55:00,45.6,42.8,30.28,SSE,148,0.0,0.0,90,0.00,,,0.00,Wunderground v.1.15,2013-04-29 02:55:00,
2013-04-28 23:01:00,45.4,42.9,30.28,SSE,148,0.0,0.0,91,0.00,,,0.00,Wunderground v.1.15,2013-04-29 03:01:00,
2013-04-28 23:06:00,45.2,42.7,30.28,SSE,148,0.0,0.0,91,0.00,,,0.00,Wunderground v.1.15,2013-04-29 03:06:00,
2013-04-28 23:11:00,45.0,42.5,30.29,SSE,148,0.0,0.0,91,0.00,,,0.00,Wunderground v.1.15,2013-04-29 03:11:00,
2013-04-28 23:17:00,44.8,42.6,30.29,SSE,148,0.0,0.0,92,0.00,,,0.00,Wunderground v.1.15,2013-04-29 03:17:00,
2013-04-28 23:22:00,44.7,42.5,30.29,SSE,148,0.0,0.0,92,0.00,,,0.00,Wunderground v.1.15,2013-04-29 03:22:00,
2013-04-28 23:28:00,44.5,42.3,30.29,SSE,148,0.0,0.0,92,0.00,,,0.00,Wunderground v.1.15,2013-04-29 03:28:00,
2013-04-28 23:33:00,44.4,42.2,30.29,SSE,148,0.0,0.0,92,0.00,,,0.00,Wunderground v.1.15,2013-04-29 03:33:00,
2013-04-28 23:39:00,44.3,42.1,30.29,SSE,148,0.0,0.0,92,0.00,,,0.00,Wunderground v.1.15,2013-04-29 03:39:00,
2013-04-28 23:45:00,44.1,41.9,30.29,SSE,148,0.0,0.0,92,0.00,,,0.00,Wunderground v.1.15,2013-04-29 03:45:00,
2013-04-28 23:50:00,44.0,42.1,30.29,SSE,148,0.0,0.0,93,0.00,,,0.00,Wunderground v.1.15,2013-04-29 03:50:00,
2013-04-28 23:55:00,44.0,42.1,30.29,SSE,148,0.0,0.0,93,0.00,,,0.00,Wunderground v.1.15,2013-04-29 03:55:00,